• MPC Preparation (Info)

  • MPEC 2015-F07 : 2015 EE7

    The following Minor Planet Electronic Circular may be linked-to from your own Web pages, but must not otherwise be redistributed electronically.

    A form allowing access to any MPEC is at the bottom of this page.


    Read MPEC 2015-F06 Read MPEC 2015-F08


    M.P.E.C. 2015-F07                                Issued 2015 Mar. 16, 16:58 UT
    
         The Minor Planet Electronic Circulars contain information on unusual
             minor planets and routine data on comets.  They are published
       on behalf of Commission 20 of the International Astronomical Union by the
              Minor Planet Center, Smithsonian Astrophysical Observatory,
                              Cambridge, MA 02138, U.S.A.
    
                 Prepared using the Tamkin Foundation Computer Network
    
                                  MPC@CFA.HARVARD.EDU
                URL https://www.minorplanetcenter.net/    ISSN 1523-6714
    
                                       2015 EE7
    
    Observations:
         K15E07E* C2015 03 14.26776 12 53 25.48 +48 07 15.9          19.0 VqEF007703
         K15E07E  C2015 03 14.27389 12 53 23.65 +48 07 09.6          19.0 VqEF007703
         K15E07E  C2015 03 14.28012 12 53 21.82 +48 07 04.7          18.8 VqEF007703
         K15E07E  C2015 03 14.28641 12 53 19.93 +48 06 57.0          18.8 VqEF007703
         K15E07E  C2015 03 14.31161 12 53 12.28 +48 06 30.1          18.4 VqEF007703
         K15E07E  C2015 03 14.31667 12 53 10.98 +48 06 26.1          18.7 VqEF007703
         K15E07E  C2015 03 14.32676 12 53 07.97 +48 06 14.8          18.8 VqEF007703
         K15E07E  C2015 03 14.51021 12 52 12.97 +48 02 42.0          19.0 VqEF007703
         K15E07E  C2015 03 14.51133 12 52 12.66 +48 02 40.3          18.7 VqEF007703
         K15E07E  C2015 03 14.51246 12 52 12.25 +48 02 38.9          18.9 VqEF007703
         K15E07E  C2015 03 14.51357 12 52 11.93 +48 02 37.6          19.0 VqEF007703
         K15E07E  C2015 03 14.51469 12 52 11.67 +48 02 36.1          18.7 VqEF007703
         K15E07E KC2015 03 15.12600 12 49 19.94 +47 50 10.6          18.5 RqEF007G48
         K15E07E KC2015 03 15.12705 12 49 19.62 +47 50 09.8          18.3 RqEF007G48
         K15E07E KC2015 03 15.12812 12 49 19.33 +47 50 08.3          18.7 RqEF007G48
         K15E07E 4C2015 03 15.14335 12 49 10.08 +47 50 03.3          18.8 VuEF007I89
         K15E07E 4C2015 03 15.14705 12 49 08.86 +47 49 57.9          18.9 VuEF007I89
         K15E07E 4C2015 03 15.15071 12 49 07.77 +47 49 53.4          18.9 VuEF007I89
         K15E07E KC2015 03 15.31799 12 48 19.39 +47 46 21.4          18.9 RqEF007H36
         K15E07E KC2015 03 15.32262 12 48 17.89 +47 46 15.5          18.6 RqEF007H36
         K15E07E KC2015 03 15.32723 12 48 16.41 +47 46 09.3          18.7 RqEF007H36
         K15E07E KC2015 03 15.32950212 48 15.27 +47 46 05.2          19.1 VuEF007H21
         K15E07E KC2015 03 15.33222412 48 14.40 +47 46 01.6          19.1 VuEF007H21
         K15E07E KC2015 03 15.33530412 48 13.41 +47 45 57.4          19.1 VuEF007H21
         K15E07E KC2015 03 15.34872512 48 10.11 +47 45 45.5          18.8 RqEF007448
         K15E07E  C2015 03 15.34927 12 48 10.18 +47 45 44.9          18.9 VqEF007G96
         K15E07E  C2015 03 15.35331 12 48 08.90 +47 45 39.6          18.9 VqEF007G96
         K15E07E KC2015 03 15.35637912 48 07.64 +47 45 35.5          18.8 RqEF007448
         K15E07E  C2015 03 15.35749 12 48 07.52 +47 45 34.1          18.9 VqEF007G96
         K15E07E  C2015 03 15.36184 12 48 06.12 +47 45 28.5          18.9 VqEF007G96
         K15E07E KC2015 03 15.36581112 48 04.62 +47 45 22.6          19.2 RqEF007448
         K15E07E  C2015 03 15.63557 12 46 44.46 +47 39 05.2          18.2 RqEF007O75
         K15E07E  C2015 03 15.63800 12 46 43.69 +47 39 01.8          17.7 RqEF007O75
         K15E07E  C2015 03 15.63921 12 46 43.28 +47 39 00.8          18.0 RqEF007O75
         K15E07E  C2015 03 15.64001 12 46 43.05 +47 38 58.8          18.4 RqEF007O75
         K15E07E  C2015 03 16.10733912 44 18.16 +47 27 43.4          18.4 RtEF007H01
         K15E07E  C2015 03 16.11410412 44 15.99 +47 27 34.4          18.6 RtEF007H01
         K15E07E  C2015 03 16.12642712 44 12.04 +47 27 17.9          18.5 RtEF007H01
         K15E07E  C2015 03 16.13122512 44 10.48 +47 27 11.7          18.3 RtEF007H01
         K15E07E  C2015 03 16.57979 12 41 43.78 +47 15 53.3          18.3 VqEF007900
         K15E07E  C2015 03 16.58551 12 41 41.62 +47 15 45.9          18.4 VqEF007900
         K15E07E  C2015 03 16.59123 12 41 39.68 +47 15 35.4          17.6 VqEF007900
    
    Observer details:
    448 Desert Moon Observatory.  Observer B. L. Stevens.  0.3-m
        Schmidt-Cassegrain + CCD.
    703 Catalina Sky Survey.  Observer R. E. Hill.  Measurers E. J. Christensen,
        D. C. Fuls, A. R. Gibbs, A. D. Grauer, R. E. Hill, J. A. Johnson,
        R. A. Kowalski, S. M. Larson, R. G. Matheny, F. C. Shelly.  0.68-m Schmidt
        + CCD.
    900 Moriyama.  Observer Y. Ikari.  0.26-m f/7.0 reflector + CCD.
    G48 Doc Greiner Research Obs., Rancho Hildalgo.  Observer M. Mills.  0.4-m
        f/10 Schmidt-Cassegrain + CCD.
    G96 Mt. Lemmon Survey.  Observer J. A. Johnson.  Measurers E. J. Christensen,
        D. C. Fuls, A. R. Gibbs, A. D. Grauer, R. E. Hill, J. A. Johnson,
        R. A. Kowalski, S. M. Larson, R. G. Matheny, F. C. Shelly.  1.5-m
        reflector + CCD.
    H01 Magdalena Ridge Observatory, Socorro.  Observer W. H. Ryan.  2.4-m f/8.9
        reflector + CCD.
    H21 Astronomical Research Observatory, Westfield.  Observer R. Holmes.
        Measurers T. Linder, L. Buzzi, S. Foglia, T. Vorobjov.  0.61-m f/4.5
        astrograph + CCD.
    H36 Sandlot Observatory, Scranton.  Observer G. Hug.  0.56-m reflector + CCD.
    I89 iTelescope Observatory, Nerpio.  Observer M. Suzuki.  0.43-m f/6.8
        astrograph + CCD.
    O75 ISON-Hureltogoot Observatory.  Observers T. Namkhai, S. Schmalz.  Measurer
        S. Schmalz.  0.4-m f/2.3 reflector + CCD.
    
    Orbital elements:
    2015 EE7                                                 Earth MOID = 0.0684 AU
    Epoch 2015 June 27.0 TT = JDT 2457200.5                 MPC
    M  21.58321              (2000.0)            P               Q
    n   0.43717275     Peri.  219.02028     -0.67548041     +0.73351805
    a   1.7193620      Node     9.38461     -0.50592215     -0.38668813
    e   0.4163993      Incl.   27.52216     -0.53644105     -0.55894862
    P   2.25           H   20.1           G   0.15           U   7
    Residuals in seconds of arc
    150314 703  0.4+  0.3-    150315 G48  0.5+  0.1-    150315 G96  0.1-  0.2+
    150314 703  0.2+  0.4-    150315 I89  0.2-  0.1-    150315 G96  0.1-  0.3+
    150314 703  0.3+  1.0+    150315 I89  0.8-  0.5-    150315 448  0.0   0.3-
    150314 703  0.0   0.3-    150315 I89  0.3-  0.1-    150315 O75  0.3+  0.2+
    150314 703  1.6-  1.1-    150315 H36  0.1+  0.0     150315 O75  0.4+  0.1-
    150314 703  0.5+  0.3+    150315 H36  0.1-  0.1+    150315 O75  0.2+  0.5+
    150314 703  0.5+  0.3-    150315 H36  0.2-  0.0     150315 O75  0.4+  0.5-
    150314 703  0.1+  0.4+    150315 H21  0.4-  0.3-    150316 H01  0.0   0.0
    150314 703  0.3+  0.1+    150315 H21  0.4-  0.3-    150316 H01  0.1-  0.0
    150314 703  0.4-  0.1+    150315 H21  0.4-  0.4-    150316 H01  0.1+  0.0
    150314 703  0.3-  0.2+    150315 448  0.1-  0.1+    150316 H01  0.0   0.2+
    150314 703  0.4+  0.1+    150315 G96  0.1+  0.3+    150316 900  1.2+  0.5-
    150315 G48  0.2+  0.2-    150315 G96  0.3+  0.2+    150316 900  0.6-  0.8+
    150315 G48  0.2+  0.2+    150315 448  0.2-  0.1+    150316 900  0.1-  1.0-
    
    Ephemeris:
    2015 EE7                 a,e,i = 1.72, 0.42, 28                  q = 1.0034
    Date    TT    R. A. (2000) Decl.     Delta      r     Elong.  Phase     V
    2015 02 14    13 36 34.5 +48 07 08   0.5047  1.3235   121.6    39.5    20.8
    ...
    2015 03 01    13 30 44.6 +49 19 18   0.3592  1.2368   126.1    40.3    19.9
    ...
    2015 03 09    13 13 28.9 +49 07 57   0.2849  1.1930   129.1    40.2    19.3
    ...
    2015 03 15    12 49 54.2 +47 53 00   0.2314  1.1617   131.9    39.5    18.8
    2015 03 16    12 44 49.2 +47 30 36   0.2227  1.1567   132.5    39.4    18.7
    2015 03 17    12 39 21.8 +47 04 15   0.2141  1.1517   133.0    39.1    18.6
    ...
    2015 03 23    11 57 59.3 +42 25 52   0.1655  1.1229   136.8    37.4    18.0
    ...
    2015 03 31    10 39 38.7 +25 54 37   0.1148  1.0880   139.0    37.0    17.1
    ...
    2015 04 15    08 01 10.6 -31 05 39   0.1301  1.0366   101.4    71.6    18.3
    
    Gareth V. Williams           (C) Copyright 2015 MPC           M.P.E.C. 2015-F07
    

    Read MPEC 2015-F06 Read MPEC 2015-F08


    MPEC number:

    Enter an MPEC number in one of the following forms:

    • 1997-B01 (the full form)
    • J97B01 (the packed version of the full form)
    • B01 (the abbreviated form)